[[{"header":{"parameterUnit":"m.s-1","parameterCategory":2,"la1":30.2991,"la2":30.254,"lo1":-89.0895,"lo2":-89.0444,"dy":0.0017,"dx":0.0017,"nx":28,"ny":28,"refTime":"2024-08-27T09:00:00:Z","depth":"0","parameterNumber":2,"parameterNumberName":"U-component_of_CURRENTS"},"data":[0,0,0,0,0,0,0,0,0,0,0,0,0,0,0,0,0,0,0,0,0,0,0,0,0,0,0,0,0,0,0,0,0,0,0,0,0,0,0,0,0,0,0,0,0,0,0,0,0,0,0,0,0,0,0,0,0,0,0.2592,0.2591,0,0.2551,0.2551,0.255,0.2508,0.2507,0.2507,0.2507,0.2476,0.2475,0.2475,0,0,0,0,0,0,0,0,0,0,0,0,0,0.2643,0.2642,0.2592,0.2591,0.2591,0.2552,0.2551,0.255,0.2508,0.2507,0.2507,0.2507,0.2476,0.2475,0.2475,0,0,0,0,0,0,0,0,0,0,0,0,0,0.2611,0.2642,0.2592,0.2567,0.2565,0.2552,0.2551,0.255,0.2508,0.2507,0.2507,0.2506,0.2476,0.2475,0.2475,0.2482,0,0,0.2472,0.2472,0,0,0,0,0,0,0,0,0.2613,0.2609,0.2571,0.2569,0.2566,0.2536,0.2558,0.2528,0.2508,0.2527,0.2507,0.2506,0.2499,0.2496,0.2486,0.248,0.2479,0.2472,0.2472,0.2472,0.2471,0,0,0,0,0,0,0,0.2615,0.2611,0.2573,0.2571,0.2568,0.2562,0.2556,0.2552,0.2515,0.2525,0.2523,0.2522,0.2497,0.2487,0.2485,0.2479,0.2472,0.2472,0.2471,0.2471,0.2501,0.2503,0,0,0,0,0,0,0.2625,0.2613,0.2575,0.2572,0.2591,0.2561,0.2555,0.2544,0.2515,0.251,0.2523,0.252,0.2489,0.2486,0.2484,0.251,0.2472,0.2471,0.2471,0.25,0.2502,0.2503,0,0,0,0,0,0,0.2626,0.2621,0.2576,0.2594,0.2588,0.2561,0.2549,0.2544,0.2538,0.2513,0.2508,0.2523,0.2488,0.2485,0.2488,0.2508,0.2471,0.247,0.2499,0.2501,0.2502,0.2551,0,0,0,0,0,0,0.2627,0.2622,0.2622,0.2595,0.2588,0.258,0.255,0.2544,0.2539,0.2536,0.2512,0.2508,0.2487,0.2489,0.2487,0.2506,0.2469,0.2497,0.25,0.2502,0.2547,0.2554,0.2559,0,0,0,0,0,0.2629,0.2631,0.2622,0.2618,0.2587,0.2581,0.2578,0.2555,0.254,0.2546,0.2528,0.2509,0.2503,0.249,0.2487,0.2506,0.2496,0.2499,0.2502,0.2545,0.2553,0.2559,0,0,0,0,0,0,0.2655,0.2627,0.2616,0.261,0.2603,0.2575,0.2578,0.2563,0.2552,0.2548,0.2521,0.2516,0.2528,0.2514,0.25,0.2524,0.2498,0.2501,0.2532,0.2539,0.2545,0.2555,0.2469,0,0,0,0,0,0.2662,0.2654,0.2634,0.2631,0.2629,0.2606,0.2602,0.2587,0.2573,0.2566,0.2548,0.2537,0.2538,0.2535,0.2531,0.2542,0.2541,0.2555,0.2561,0.2566,0.2574,0.2593,0.2601,0.2512,0.2512,0.2512,0,0,0.2671,0.2657,0.2651,0.2637,0.2627,0.2627,0.2602,0.26,0.2602,0.2567,0.2566,0.2557,0.2546,0.2557,0.2562,0.2547,0.2593,0.2569,0.2574,0.2579,0.2596,0.2605,0.2613,0.2514,0.2514,0.2513,0,0,0.2687,0.2674,0.2674,0.2672,0.2664,0.265,0.2655,0.2633,0.2627,0.2628,0.2608,0.2615,0.2604,0.2603,0.2602,0.2642,0.2625,0.264,0.2675,0.2694,0.2701,0.2707,0.2724,0.2732,0.2641,0.2641,0.2641,0,0.2702,0.2694,0.2677,0.2682,0.2685,0.2664,0.2672,0.2666,0.2649,0.2654,0.2636,0.2638,0.2628,0.2651,0.2663,0.2655,0.266,0.2646,0.2701,0.2707,0.2713,0.2729,0.2736,0.2644,0.2644,0.2643,0.2643,0,0.2716,0.2716,0.2721,0.2714,0.2718,0.2724,0.2715,0.2717,0.2706,0.2701,0.2719,0.2705,0.2707,0.271,0.2697,0.2737,0.2726,0.2707,0.2681,0.2725,0.2739,0.2746,0.2648,0.2647,0.2646,0.2645,0,0,0.2727,0.273,0.273,0.2726,0.2736,0.2727,0.2752,0.2761,0.2765,0.2765,0.2779,0.2792,0.2784,0.2783,0.2771,0.2788,0.2834,0.2767,0.2767,0.2782,0.2877,0.2823,0.2826,0.2822,0.2824,0.2825,0.2872,0,0.2744,0.2753,0.2756,0.2761,0.2762,0.2766,0.2782,0.279,0.2796,0.2802,0.2814,0.2818,0.2812,0.2807,0.2831,0.2832,0.2854,0.2823,0.2834,0.2835,0.278,0.2833,0.2704,0.2731,0.2878,0.288,0.288,0,0.275,0.2754,0.2767,0.2767,0.2769,0.2771,0.2785,0.2799,0.2827,0.2836,0.2863,0.2858,0.2896,0.2868,0.2918,0.2898,0.2897,0.2896,0.2897,0.2835,0.2795,0.2711,0.2738,0.267,0.2891,0.289,0.2889,0,0.2736,0.2752,0.2757,0.2761,0.2768,0.2774,0.2781,0.2809,0.2822,0.2856,0.287,0.2909,0.2923,0.2943,0.2955,0.2936,0.2998,0.2967,0.2923,0.2919,0.2806,0.2789,0.2764,0.3,0.3,0.3,0.3,0,0.2737,0.2732,0.2745,0.2739,0.2741,0.2756,0.2767,0.2785,0.282,0.2836,0.288,0.29,0.2943,0.2976,0.2978,0.2984,0.3023,0.2945,0.2933,0.2819,0.2804,0.2735,0.2701,0.3002,0.3001,0.3001,0.3001,0,0.2703,0.272,0.2713,0.2725,0.2728,0.2723,0.2748,0.2746,0.2802,0.2828,0.284,0.291,0.2958,0.2994,0.3029,0.3009,0.2919,0.3001,0.2868,0.2839,0.2708,0.2681,0.2535,0.2463,0.2955,0.2954,0.2954,0,0.2682,0.2678,0.2688,0.2675,0.2675,0.2681,0.2677,0.2728,0.2736,0.2825,0.2825,0.2898,0.2926,0.2982,0.296,0.2963,0.2879,0.2837,0.2774,0.2697,0.2659,0.2543,0.2486,0.2649,0.2646,0.2643,0.2641,0,0.2632,0.2637,0.2626,0.2613,0.26,0.2596,0.2603,0.2613,0.2674,0.2709,0.2758,0.2795,0.2864,0.2814,0.283,0.2812,0.2679,0.2781,0.2733,0.2448,0.2288,0.2213,0.2631,0.2617,0.262,0.2621,0.2623,0.2624,0.258,0.256,0.2545,0.2516,0.2507,0.2482,0.2452,0.2476,0.2487,0.2509,0.2631,0.2647,0.2671,0.2673,0.2644,0.2519,0.2512,0.242,0.2406,0.2307,0.2186,0.2557,0.2507,0.2509,0.251,0.2511,0.2513,0,0.2482,0.2462,0.244,0.2393,0.2339,0.2376,0.2364,0.232,0.2293,0.237,0.2407,0.2412,0.2357,0.2366,0.2271,0.2161,0.2058,0.2093,0.1908,0.1883,0.2244,0.2181,0.2019,0.2019,0.202,0.202,0.202,0.202,0.2427,0.2361,0.2343,0.2225,0.2193,0.2107,0.2081,0.2049,0.2078,0.2048,0.2048,0.2092,0.2135,0.2059,0.1929,0.1886,0.1741,0.1622,0.1653,0.1926,0.1955,0.1983,0.1918,0.1703,0.1703,0.1194,0.119,0.1187]},{"header":{"parameterUnit":"m.s-1","parameterCategory":2,"la1":30.2991,"la2":30.254,"lo1":-89.0895,"lo2":-89.0444,"dy":0.0017,"dx":0.0017,"nx":28,"ny":28,"refTime":"2024-08-27T09:00:00:Z","depth":"0","parameterNumber":3,"parameterNumberName":"V-component_of_CURRENTS"},"data":[0,0,0,0,0,0,0,0,0,0,0,0,0,0,0,0,0,0,0,0,0,0,0,0,0,0,0,0,0,0,0,0,0,0,0,0,0,0,0,0,0,0,0,0,0,0,0,0,0,0,0,0,0,0,0,0,0,0,0.0269,0.0269,0,0.0261,0.0261,0.0261,0.0248,0.0247,0.0247,0.0247,0.0214,0.0214,0.0213,0,0,0,0,0,0,0,0,0,0,0,0,0,0.0244,0.0244,0.0269,0.0269,0.0269,0.0261,0.0261,0.0261,0.0248,0.0247,0.0247,0.0247,0.0215,0.0214,0.0213,0,0,0,0,0,0,0,0,0,0,0,0,0,0.0247,0.0244,0.0269,0.0262,0.0261,0.0261,0.0261,0.0261,0.0248,0.0247,0.0247,0.0247,0.0215,0.0214,0.0213,0.0212,0,0,0.021,0.0209,0,0,0,0,0,0,0,0,0.0246,0.0247,0.0263,0.0262,0.0262,0.0255,0.024,0.0243,0.0248,0.0252,0.0247,0.0247,0.0226,0.0224,0.0223,0.021,0.0209,0.0209,0.0209,0.0208,0.0208,0,0,0,0,0,0,0,0.0246,0.0248,0.0265,0.0263,0.0262,0.0249,0.0249,0.024,0.024,0.0252,0.0251,0.0251,0.0226,0.0224,0.0222,0.0209,0.021,0.0209,0.0208,0.0208,0.0197,0.0197,0,0,0,0,0,0,0.025,0.0248,0.0266,0.0265,0.0254,0.025,0.025,0.0257,0.0241,0.0238,0.0251,0.0251,0.0226,0.0223,0.0221,0.0231,0.0208,0.0207,0.0207,0.0196,0.0197,0.0197,0,0,0,0,0,0,0.025,0.0252,0.0266,0.0256,0.0257,0.0251,0.0259,0.0257,0.0258,0.0241,0.0238,0.0253,0.0226,0.0222,0.0217,0.0229,0.0207,0.0206,0.0196,0.0196,0.0197,0.0244,0,0,0,0,0,0,0.0249,0.0252,0.0257,0.0257,0.0258,0.0273,0.0259,0.0257,0.0258,0.0257,0.0241,0.0238,0.0225,0.0219,0.0216,0.0227,0.0205,0.0195,0.0196,0.0197,0.0242,0.0246,0.0249,0,0,0,0,0,0.0249,0.026,0.0257,0.0259,0.0265,0.0273,0.0273,0.0266,0.0259,0.0264,0.0251,0.0239,0.0221,0.0218,0.0215,0.0226,0.0195,0.0196,0.0197,0.024,0.0245,0.0249,0,0,0,0,0,0,0.025,0.026,0.0257,0.027,0.0273,0.0271,0.0275,0.027,0.0264,0.0263,0.0243,0.0239,0.0237,0.0225,0.0223,0.0224,0.0206,0.0206,0.024,0.0244,0.0248,0.0264,0.0204,0,0,0,0,0,0.0253,0.0265,0.0269,0.0279,0.0283,0.0279,0.028,0.0278,0.0274,0.0272,0.0258,0.0246,0.0238,0.0236,0.0224,0.0227,0.0212,0.0232,0.0235,0.0239,0.0249,0.0236,0.024,0.0199,0.0199,0.0199,0,0,0.0255,0.0262,0.0268,0.028,0.0282,0.0296,0.0279,0.0288,0.0301,0.0269,0.0276,0.0256,0.024,0.0243,0.0241,0.0235,0.024,0.024,0.0243,0.0252,0.0238,0.0242,0.0245,0.02,0.02,0.02,0,0,0.0273,0.0275,0.0293,0.0299,0.0308,0.0309,0.0313,0.0314,0.0316,0.0321,0.0299,0.0288,0.0277,0.0269,0.0264,0.0282,0.0257,0.0275,0.0313,0.03,0.0303,0.0306,0.0284,0.0284,0.0281,0.0282,0.0282,0,0.0274,0.0302,0.0298,0.0317,0.0331,0.0318,0.0344,0.0344,0.0341,0.035,0.033,0.0313,0.0293,0.0303,0.0306,0.0292,0.0276,0.0298,0.0306,0.0308,0.031,0.0286,0.0286,0.0284,0.0284,0.0283,0.0283,0,0.0309,0.0328,0.034,0.0364,0.0375,0.0395,0.0399,0.0406,0.0402,0.0401,0.0404,0.0372,0.0365,0.0353,0.0335,0.0343,0.0323,0.0309,0.0297,0.0318,0.0291,0.029,0.0287,0.0286,0.0286,0.0285,0,0,0.0325,0.036,0.0365,0.0391,0.0406,0.0425,0.0446,0.0471,0.0496,0.0473,0.05,0.0469,0.0445,0.0437,0.0407,0.0394,0.0384,0.0362,0.036,0.0344,0.0349,0.034,0.0338,0.0371,0.0371,0.0371,0.0322,0,0.0357,0.041,0.0417,0.0468,0.0499,0.05,0.0526,0.0542,0.0547,0.0564,0.0531,0.0533,0.048,0.0475,0.0453,0.0408,0.0385,0.0398,0.0328,0.0326,0.0319,0.0338,0.0369,0.0328,0.0321,0.032,0.032,0,0.0396,0.0429,0.0488,0.054,0.0554,0.0577,0.0628,0.0652,0.0666,0.0669,0.0657,0.0623,0.0599,0.0547,0.0478,0.0489,0.0423,0.0379,0.0375,0.0354,0.0316,0.0307,0.0327,0.0272,0.0319,0.0319,0.0319,0,0.0429,0.0483,0.0538,0.0554,0.0603,0.0631,0.0657,0.0684,0.0724,0.0732,0.0754,0.0707,0.0697,0.0612,0.0508,0.0494,0.043,0.0399,0.0324,0.0321,0.0329,0.0327,0.0294,0.0344,0.0344,0.0344,0.0344,0,0.0473,0.0514,0.0558,0.0588,0.0661,0.0675,0.0749,0.0767,0.0805,0.0864,0.0807,0.0834,0.0714,0.0656,0.0543,0.044,0.0453,0.0338,0.0315,0.0344,0.0345,0.0281,0.0232,0.0342,0.0342,0.0343,0.0343,0,0.0505,0.0532,0.0599,0.0656,0.068,0.0732,0.0812,0.0863,0.0889,0.0963,0.0966,0.0938,0.087,0.0738,0.061,0.0501,0.0351,0.034,0.0378,0.036,0.024,0.0192,0.0117,0.0085,0.0256,0.0256,0.0255,0,0.0529,0.0567,0.0648,0.0692,0.072,0.0797,0.0853,0.0903,0.0962,0.1031,0.107,0.1028,0.1019,0.0828,0.0632,0.0442,0.035,0.0327,0.0304,0.0249,0.0178,0.0144,0.012,0.0323,0.0324,0.0324,0.0324,0,0.0573,0.06,0.0652,0.0742,0.0808,0.0896,0.0975,0.1038,0.1107,0.1176,0.1244,0.1243,0.1078,0.0922,0.0662,0.0514,0.03,0.0325,0.0264,0.0231,0.0195,0.0149,0.0329,0.0326,0.0326,0.0325,0.0325,0.0325,0.0602,0.0645,0.071,0.0796,0.0876,0.0977,0.1053,0.1148,0.1263,0.1373,0.137,0.1414,0.1189,0.0855,0.0648,0.033,0.0308,0.024,0.0185,0.0155,0.0134,0.0314,0.0287,0.0287,0.0286,0.0286,0.0286,0,0.0632,0.0681,0.076,0.0861,0.0944,0.0986,0.1123,0.1209,0.135,0.1469,0.1539,0.1487,0.1208,0.0897,0.0466,0.0246,0.0157,0.0126,0.0095,0.0074,0.0241,0.0256,0.0225,0.0225,0.0226,0.0226,0.0226,0.0226,0.0649,0.0715,0.0757,0.0892,0.0966,0.1085,0.1165,0.1308,0.1428,0.1592,0.1655,0.1669,0.1469,0.0737,0.0262,0.0134,-0.0006,-0.0043,-0.0121,0.0007,0.0014,0.0021,0.0026,-0.0052,-0.0053,-0.0238,-0.024,-0.0242]}],[{"header":{"parameterUnit":"m.s-1","parameterCategory":2,"la1":30.2991,"la2":30.254,"lo1":-89.0895,"lo2":-89.0444,"dy":0.0017,"dx":0.0017,"nx":28,"ny":28,"refTime":"2024-08-27T09:00:00:Z","depth":"2","parameterNumber":2,"parameterNumberName":"U-component_of_CURRENTS"},"data":[0,0,0,0,0,0,0,0,0,0,0,0,0,0,0,0,0,0,0,0,0,0,0,0,0,0,0,0,0,0,0,0,0,0,0,0,0,0,0,0,0,0,0,0,0,0,0,0,0,0,0,0,0,0,0,0,0,0,0.2074,0.2074,0,0.2074,0.2074,0.2074,0.2067,0.2067,0.2067,0.2067,0.2064,0.2064,0.2063,0,0,0,0,0,0,0,0,0,0,0,0,0,0.2081,0.2081,0.2074,0.2074,0.2074,0.2074,0.2074,0.2074,0.2067,0.2067,0.2067,0.2067,0.2064,0.2064,0.2063,0,0,0,0,0,0,0,0,0,0,0,0,0,0.2078,0.2081,0.2074,0.2072,0.2072,0.2074,0.2074,0.2074,0.2067,0.2067,0.2067,0.2067,0.2064,0.2064,0.2063,0.2064,0,0,0.2063,0.2063,0,0,0,0,0,0,0,0,0.2078,0.2077,0.2072,0.2072,0.2072,0.2072,0.2075,0.2071,0.2067,0.2067,0.2067,0.2067,0.2067,0.2067,0.2065,0.2064,0.2064,0.2063,0.2063,0.2063,0.2063,0,0,0,0,0,0,0,0.2078,0.2077,0.2072,0.2072,0.2072,0.2076,0.2075,0.2074,0.2066,0.2067,0.2067,0.207,0.2067,0.2065,0.2064,0.2063,0.2063,0.2063,0.2063,0.2063,0.2106,0.2107,0,0,0,0,0,0,0.2081,0.2078,0.2072,0.2073,0.2077,0.2076,0.2075,0.2071,0.2066,0.2066,0.207,0.2069,0.2065,0.2065,0.2064,0.2101,0.2063,0.2063,0.2063,0.2105,0.2106,0.2108,0,0,0,0,0,0,0.2081,0.208,0.2072,0.2077,0.2076,0.2076,0.2071,0.2071,0.2079,0.2068,0.2068,0.208,0.2065,0.2064,0.2078,0.21,0.2063,0.2063,0.2104,0.2105,0.2107,0.2151,0,0,0,0,0,0,0.2081,0.208,0.2084,0.2077,0.2076,0.2085,0.2071,0.2071,0.2081,0.2081,0.2077,0.2076,0.2065,0.2078,0.2077,0.2099,0.2063,0.2102,0.2104,0.2106,0.2148,0.2154,0.216,0,0,0,0,0,0.2081,0.2084,0.2083,0.2083,0.2079,0.2086,0.2086,0.2085,0.2082,0.2091,0.2089,0.2077,0.2092,0.2079,0.2078,0.21,0.2101,0.2104,0.2106,0.2146,0.2153,0.216,0,0,0,0,0,0,0.2089,0.2083,0.2083,0.2084,0.2091,0.2086,0.2094,0.2093,0.2099,0.21,0.2088,0.2087,0.2109,0.21,0.2085,0.212,0.2096,0.2099,0.2127,0.2133,0.2139,0.2149,0.2063,0,0,0,0,0,0.2093,0.2093,0.2093,0.2097,0.2101,0.2101,0.2105,0.2106,0.2107,0.211,0.2107,0.2108,0.2118,0.2122,0.2125,0.2141,0.2141,0.2157,0.2162,0.2167,0.2176,0.2196,0.2204,0.2117,0.2117,0.2116,0,0,0.2096,0.2095,0.2094,0.2099,0.2102,0.2112,0.2103,0.2115,0.2128,0.2109,0.2126,0.2128,0.2128,0.2147,0.2156,0.2143,0.2193,0.217,0.2174,0.2181,0.2199,0.2208,0.2215,0.2118,0.2118,0.2118,0,0,0.2102,0.2104,0.2106,0.2115,0.2127,0.2129,0.2137,0.214,0.2149,0.2166,0.2161,0.2179,0.2183,0.2192,0.2196,0.2236,0.2223,0.2238,0.2272,0.2291,0.2298,0.2305,0.2318,0.2325,0.2239,0.2239,0.2239,0,0.211,0.211,0.2111,0.212,0.2132,0.2139,0.2152,0.2163,0.2172,0.2187,0.2179,0.2207,0.2207,0.2238,0.2256,0.225,0.2255,0.2244,0.2298,0.2305,0.231,0.2322,0.2329,0.2241,0.2241,0.2241,0.224,0,0.2114,0.2123,0.2129,0.2141,0.2155,0.217,0.2186,0.2205,0.2217,0.2227,0.2263,0.2266,0.2284,0.229,0.2286,0.2331,0.232,0.2303,0.228,0.2322,0.2331,0.2338,0.2245,0.2244,0.2243,0.2243,0,0,0.2109,0.2129,0.2132,0.2139,0.217,0.2174,0.2213,0.2244,0.2266,0.2287,0.2317,0.2347,0.2352,0.2358,0.2357,0.2377,0.2425,0.2363,0.2363,0.2373,0.2467,0.2403,0.2404,0.2417,0.2418,0.2419,0.2457,0,0.2116,0.2131,0.2146,0.2166,0.2175,0.2205,0.2235,0.2266,0.2295,0.2325,0.2353,0.2377,0.2376,0.2387,0.2412,0.2424,0.2445,0.2416,0.2427,0.2427,0.2363,0.241,0.2203,0.2214,0.2464,0.2465,0.2466,0,0.2113,0.2125,0.2145,0.2173,0.218,0.2199,0.2248,0.2277,0.2334,0.2358,0.24,0.2414,0.2465,0.2444,0.25,0.2481,0.2484,0.2486,0.2487,0.2417,0.2376,0.2213,0.2217,0.2477,0.2476,0.2475,0.2474,0,0.209,0.2121,0.2135,0.2146,0.2182,0.2205,0.2234,0.229,0.2323,0.2383,0.2413,0.2462,0.2495,0.2515,0.2538,0.2522,0.2584,0.2556,0.2499,0.2495,0.2315,0.2292,0.2588,0.2588,0.2588,0.2588,0.2587,0,0.2081,0.209,0.2124,0.2127,0.2152,0.2187,0.2228,0.2265,0.2331,0.2367,0.2427,0.2461,0.2517,0.2556,0.2558,0.2559,0.2604,0.2519,0.2505,0.2325,0.2303,0.2524,0.2517,0.2589,0.2589,0.2588,0.2588,0,0.2045,0.207,0.2082,0.2123,0.2137,0.2154,0.2221,0.2243,0.232,0.2372,0.2395,0.2483,0.2533,0.2574,0.2611,0.2584,0.2584,0.2567,0.2352,0.2313,0.2475,0.2469,0.2507,0.2506,0.2504,0.2503,0.2502,0,0.2024,0.2027,0.2067,0.2072,0.2091,0.2128,0.2148,0.2227,0.2255,0.2371,0.2383,0.2471,0.2498,0.2546,0.2511,0.2502,0.2561,0.2299,0.2228,0.2486,0.247,0.2466,0.2463,0.2009,0.2004,0.2,0.1997,0,0.1983,0.2002,0.2009,0.2025,0.2042,0.2062,0.2102,0.2124,0.2212,0.2258,0.2316,0.2354,0.2412,0.2308,0.2312,0.2276,0.2284,0.2214,0.2542,0.2064,0.202,0.2003,0.2015,0.196,0.1964,0.1966,0.1968,0.197,0.1949,0.1944,0.1956,0.1958,0.1976,0.1973,0.1959,0.2001,0.2028,0.2062,0.2171,0.2156,0.2171,0.2068,0.1995,0.1937,0.2094,0.1982,0.1993,0.2009,0.1947,0.1903,0.1809,0.1812,0.1814,0.1816,0.1818,0,0.1885,0.1882,0.1884,0.1872,0.1846,0.1892,0.1897,0.1857,0.1833,0.1897,0.1924,0.1766,0.1693,0.1715,0.1563,0.1551,0.1525,0.1486,0.1427,0.1465,0.1499,0.1409,0.1129,0.1127,0.1125,0.1123,0,0,0.185,0.1815,0.1805,0.1733,0.1728,0.1668,0.1648,0.1605,0.1612,0.1562,0.1537,0.165,0.1683,0.1398,0.1345,0.1212,0.1335,0.1164,0.1718,0.1689,0.172,0.1787,0.1692,0,0,0,0,0]},{"header":{"parameterUnit":"m.s-1","parameterCategory":2,"la1":30.2991,"la2":30.254,"lo1":-89.0895,"lo2":-89.0444,"dy":0.0017,"dx":0.0017,"nx":28,"ny":28,"refTime":"2024-08-27T09:00:00:Z","depth":"2","parameterNumber":3,"parameterNumberName":"V-component_of_CURRENTS"},"data":[0,0,0,0,0,0,0,0,0,0,0,0,0,0,0,0,0,0,0,0,0,0,0,0,0,0,0,0,0,0,0,0,0,0,0,0,0,0,0,0,0,0,0,0,0,0,0,0,0,0,0,0,0,0,0,0,0,0,0.0236,0.0236,0,0.0229,0.0229,0.0229,0.0219,0.0219,0.0219,0.0219,0.0193,0.0192,0.0192,0,0,0,0,0,0,0,0,0,0,0,0,0,0.021,0.0211,0.0236,0.0236,0.0236,0.0229,0.0229,0.0229,0.0219,0.0219,0.0219,0.0219,0.0193,0.0192,0.0192,0,0,0,0,0,0,0,0,0,0,0,0,0,0.0214,0.0211,0.0236,0.023,0.023,0.0229,0.0229,0.0228,0.022,0.0219,0.0219,0.0219,0.0193,0.0193,0.0192,0.0191,0,0,0.0189,0.0189,0,0,0,0,0,0,0,0,0.0214,0.0215,0.0231,0.0231,0.023,0.0225,0.021,0.0215,0.022,0.0223,0.0219,0.0219,0.0202,0.02,0.02,0.019,0.0189,0.0189,0.0189,0.0188,0.0188,0,0,0,0,0,0,0,0.0214,0.0215,0.0233,0.0231,0.023,0.0217,0.0218,0.0211,0.0214,0.0223,0.0222,0.0221,0.0201,0.0201,0.0199,0.0189,0.0189,0.0188,0.0188,0.0188,0.0178,0.0179,0,0,0,0,0,0,0.0216,0.0215,0.0233,0.0233,0.0221,0.0218,0.0219,0.0227,0.0214,0.0212,0.0222,0.0221,0.0202,0.02,0.0198,0.0207,0.0188,0.0188,0.0187,0.0178,0.0179,0.0179,0,0,0,0,0,0,0.0216,0.0218,0.0234,0.0223,0.0224,0.0219,0.0228,0.0227,0.0227,0.0213,0.0211,0.0224,0.0202,0.0199,0.0196,0.0205,0.0187,0.0186,0.0178,0.0178,0.0179,0.0217,0,0,0,0,0,0,0.0215,0.0219,0.0223,0.0224,0.0225,0.0239,0.0228,0.0227,0.0227,0.0226,0.0214,0.0212,0.0202,0.0197,0.0195,0.0204,0.0186,0.0178,0.0178,0.0179,0.0216,0.0219,0.0222,0,0,0,0,0,0.0215,0.0225,0.0224,0.0225,0.0232,0.024,0.0239,0.0234,0.0227,0.0233,0.0223,0.0212,0.0198,0.0197,0.0194,0.0203,0.0177,0.0178,0.0179,0.0214,0.0218,0.0221,0,0,0,0,0,0,0.0214,0.0225,0.0224,0.0236,0.0239,0.0238,0.0241,0.0237,0.0233,0.0232,0.0216,0.0213,0.0212,0.0202,0.02,0.0201,0.0186,0.0186,0.0214,0.0217,0.022,0.0233,0.0185,0,0,0,0,0,0.0217,0.023,0.0234,0.0244,0.0247,0.0244,0.0244,0.0244,0.0241,0.024,0.0229,0.0218,0.0212,0.021,0.0201,0.0204,0.0187,0.0207,0.021,0.0212,0.0221,0.0201,0.0203,0.0181,0.0181,0.0181,0,0,0.0219,0.0226,0.0232,0.0244,0.0246,0.0259,0.0244,0.0252,0.0264,0.0237,0.0244,0.0227,0.0214,0.0216,0.0215,0.021,0.0209,0.0213,0.0216,0.0223,0.0202,0.0204,0.0206,0.0181,0.0181,0.0181,0,0,0.0233,0.0237,0.0253,0.026,0.0268,0.0269,0.0273,0.0274,0.0276,0.0281,0.0263,0.0253,0.0244,0.0237,0.0233,0.0247,0.0223,0.0242,0.0272,0.0253,0.0254,0.0256,0.0232,0.0231,0.0246,0.0247,0.0247,0,0.0233,0.0259,0.0257,0.0276,0.0287,0.0277,0.0299,0.03,0.0299,0.0304,0.0289,0.0272,0.0257,0.0263,0.0267,0.0255,0.0237,0.026,0.0257,0.0258,0.0259,0.0234,0.0232,0.0248,0.0248,0.0248,0.0248,0,0.0263,0.0282,0.0293,0.0316,0.0325,0.0343,0.0348,0.0354,0.035,0.0347,0.0346,0.0321,0.0313,0.0303,0.029,0.0291,0.0274,0.026,0.025,0.0263,0.0236,0.0234,0.0251,0.0251,0.025,0.0249,0,0,0.0273,0.0309,0.0313,0.0336,0.0353,0.0368,0.0387,0.0406,0.0424,0.0405,0.0421,0.0398,0.0375,0.0369,0.0345,0.0327,0.0311,0.0301,0.0299,0.0281,0.0265,0.0255,0.0251,0.0296,0.0296,0.0296,0.0242,0,0.0301,0.0348,0.0357,0.0402,0.0429,0.0431,0.0455,0.0466,0.0466,0.0475,0.0445,0.0444,0.0404,0.0399,0.0375,0.0333,0.0308,0.0327,0.0251,0.0249,0.0241,0.0249,0.0261,0.0214,0.0239,0.0239,0.0239,0,0.0334,0.0363,0.0415,0.0461,0.0473,0.0494,0.0534,0.0555,0.0559,0.0559,0.0543,0.0512,0.0488,0.0448,0.0378,0.0392,0.0333,0.0291,0.0288,0.0266,0.0235,0.0205,0.0209,0.0234,0.0235,0.0235,0.0235,0,0.0358,0.0407,0.0454,0.047,0.0513,0.0537,0.056,0.0578,0.061,0.0607,0.0621,0.0574,0.0563,0.0484,0.0394,0.0386,0.0312,0.0288,0.0219,0.0217,0.0208,0.0205,0.0231,0.0231,0.0232,0.0232,0.0232,0,0.0393,0.0429,0.047,0.0496,0.0557,0.0571,0.063,0.0645,0.0672,0.0717,0.0665,0.0682,0.0572,0.0515,0.0417,0.0318,0.0327,0.0228,0.0206,0.022,0.022,0.0223,0.0223,0.023,0.023,0.0231,0.0231,0,0.0417,0.0443,0.05,0.0551,0.0573,0.0616,0.0684,0.0724,0.0742,0.0798,0.08,0.0767,0.0697,0.0577,0.0455,0.0361,0.0255,0.0212,0.0235,0.0217,0.0163,0.0165,0.0131,0.0131,0.013,0.0129,0.0129,0,0.0435,0.0467,0.054,0.0578,0.0604,0.0668,0.0718,0.0759,0.0806,0.0855,0.0885,0.0836,0.0817,0.0632,0.0458,0.0286,0.0257,0.0172,0.0156,0.0173,0.0154,0.0158,0.0161,0.0152,0.0151,0.0151,0.0151,0,0.0467,0.0492,0.0538,0.0618,0.0676,0.0753,0.0823,0.0874,0.093,0.0978,0.1025,0.1012,0.085,0.0688,0.0452,0.0328,0.02,0.0163,0.0178,0.018,0.0189,0.0172,0.0175,0.0149,0.015,0.015,0.015,0.015,0.0489,0.0526,0.0586,0.0663,0.0734,0.0825,0.0891,0.0969,0.106,0.1132,0.112,0.1103,0.0921,0.0625,0.042,0.0195,0.0207,0.0115,0.0117,0.0119,0.0136,0.0144,0.0098,0.0098,0.0098,0.0098,0.0098,0,0.0516,0.056,0.0627,0.0719,0.0794,0.0835,0.0954,0.1022,0.1132,0.1189,0.1226,0.1047,0.0869,0.0649,0.033,0.0141,0.012,0.0064,0.0086,0.009,0.0092,0.0108,0.0063,0.0062,0.0062,0.0061,0,0,0.0531,0.0591,0.0627,0.0749,0.0816,0.0925,0.0997,0.1103,0.1173,0.1231,0.122,0.1189,0.0937,0.0696,0.0442,0.0256,0.0211,0.0208,0.0257,0.0316,0.0321,0.0142,0.0174,0,0,0,0,0]}],[{"header":{"parameterUnit":"m.s-1","parameterCategory":2,"la1":30.2991,"la2":30.254,"lo1":-89.0895,"lo2":-89.0444,"dy":0.0017,"dx":0.0017,"nx":28,"ny":28,"refTime":"2024-08-27T09:00:00:Z","depth":"4","parameterNumber":2,"parameterNumberName":"U-component_of_CURRENTS"},"data":[0,0,0,0,0,0,0,0,0,0,0,0,0,0,0,0,0,0,0,0,0,0,0,0,0,0,0,0,0,0,0,0,0,0,0,0,0,0,0,0,0,0,0,0,0,0,0,0,0,0,0,0,0,0,0,0,0,0,0.1253,0.1253,0,0.1299,0.13,0.13,0.1343,0.1344,0.1345,0.1345,0.1392,0.1392,0.1393,0,0,0,0,0,0,0,0,0,0,0,0,0,0.1207,0.1208,0.1253,0.1254,0.1254,0.1299,0.13,0.13,0.1343,0.1344,0.1345,0.1346,0.1391,0.1392,0.1393,0,0,0,0,0,0,0,0,0,0,0,0,0,0.1236,0.1208,0.1253,0.1282,0.1286,0.1299,0.13,0.13,0.1343,0.1344,0.1345,0.1346,0.1391,0.1392,0.1393,0.1378,0,0,0.1396,0.1396,0,0,0,0,0,0,0,0,0.1234,0.1238,0.1277,0.128,0.1284,0.1318,0.1301,0.1327,0.1343,0.132,0.1345,0.1347,0.1367,0.137,0.1374,0.138,0.1382,0.1396,0.1396,0.1397,0.1397,0,0,0,0,0,0,0,0.1232,0.1236,0.127,0.1278,0.1282,0.1296,0.13,0.1306,0.1336,0.1322,0.1325,0.1333,0.1369,0.1373,0.1376,0.1383,0.1396,0.1397,0.1397,0.1397,0.1471,0.1473,0,0,0,0,0,0,0.1228,0.1234,0.1268,0.1271,0.1263,0.1296,0.1301,0.1305,0.1336,0.1342,0.1332,0.1335,0.1371,0.1375,0.1378,0.1443,0.1397,0.1398,0.1398,0.147,0.1472,0.1473,0,0,0,0,0,0,0.1227,0.1231,0.1266,0.1255,0.1261,0.1295,0.1299,0.1305,0.134,0.1344,0.135,0.1364,0.1372,0.1376,0.1412,0.1442,0.1398,0.1399,0.1468,0.147,0.1472,0.1522,0,0,0,0,0,0,0.1225,0.123,0.1245,0.1255,0.1261,0.1293,0.1299,0.1305,0.1341,0.1346,0.1373,0.1376,0.1373,0.1411,0.1413,0.1443,0.1399,0.1466,0.1469,0.1472,0.1518,0.1525,0.1531,0,0,0,0,0,0.1224,0.1233,0.1245,0.125,0.1276,0.1294,0.1299,0.1326,0.1342,0.136,0.1383,0.1377,0.1429,0.1413,0.1415,0.1445,0.1465,0.1468,0.1471,0.1515,0.1524,0.1531,0,0,0,0,0,0,0.1223,0.1239,0.1252,0.1268,0.129,0.1303,0.1325,0.1341,0.1373,0.1387,0.1391,0.1396,0.144,0.1436,0.1417,0.1476,0.1448,0.1451,0.148,0.1488,0.1495,0.1503,0.14,0,0,0,0,0,0.1228,0.1242,0.126,0.1277,0.1289,0.1313,0.133,0.1349,0.1371,0.1388,0.1406,0.1428,0.1448,0.1464,0.1478,0.1506,0.1505,0.1529,0.1536,0.1541,0.155,0.1574,0.1583,0.1484,0.1484,0.1483,0,0,0.1233,0.1245,0.1254,0.1279,0.1299,0.1319,0.1326,0.136,0.1388,0.1386,0.1436,0.1451,0.1462,0.1498,0.1517,0.1502,0.1569,0.1545,0.155,0.1556,0.1578,0.1588,0.1596,0.1486,0.1485,0.1485,0,0,0.1239,0.1262,0.1273,0.1293,0.1329,0.1343,0.136,0.139,0.142,0.146,0.1471,0.1509,0.1535,0.1553,0.1563,0.1613,0.1602,0.1621,0.1661,0.1683,0.1692,0.1699,0.1708,0.1715,0.1624,0.1624,0.1624,0,0.125,0.1263,0.1282,0.1299,0.1324,0.1357,0.1381,0.141,0.1452,0.148,0.1485,0.1548,0.1561,0.1607,0.1632,0.1629,0.1635,0.1628,0.1691,0.1699,0.1705,0.1712,0.172,0.1627,0.1626,0.1626,0.1626,0,0.1253,0.128,0.1291,0.1324,0.1352,0.1381,0.1419,0.146,0.1499,0.1526,0.1591,0.1612,0.165,0.1663,0.1666,0.1724,0.1711,0.1695,0.1669,0.1718,0.1722,0.173,0.1631,0.163,0.1629,0.1628,0,0,0.124,0.1285,0.1294,0.1316,0.1373,0.139,0.1449,0.1503,0.1545,0.1595,0.1647,0.1699,0.172,0.1734,0.1746,0.1773,0.1828,0.1763,0.1763,0.1768,0.1875,0.1742,0.1736,0.1825,0.1827,0.1828,0.1858,0,0.1246,0.1276,0.1305,0.1349,0.137,0.1425,0.1472,0.1529,0.1584,0.164,0.1687,0.1738,0.1743,0.1772,0.1804,0.1827,0.185,0.1821,0.1831,0.1831,0.1703,0.1741,0.1834,0.1863,0.1865,0.1866,0.1867,0,0.1238,0.1263,0.1303,0.1362,0.1378,0.1417,0.1503,0.155,0.1638,0.1681,0.1745,0.1779,0.1849,0.1835,0.1901,0.1885,0.189,0.1897,0.1897,0.1761,0.1711,0.1806,0.1879,0.1878,0.1877,0.1877,0.1876,0,0.1205,0.1261,0.1296,0.1316,0.1387,0.1431,0.1482,0.1571,0.1624,0.1717,0.1764,0.1833,0.1885,0.191,0.1942,0.193,0.1993,0.197,0.185,0.1841,0.193,0.1922,0.2005,0.2005,0.2005,0.2004,0.2004,0,0.1185,0.1215,0.1287,0.1304,0.1359,0.1419,0.1493,0.1554,0.1649,0.1704,0.1788,0.1832,0.1911,0.1955,0.196,0.1928,0.2009,0.1863,0.1842,0.1949,0.1943,0.1935,0.1926,0.2006,0.2005,0.2005,0.2005,0,0.1139,0.1185,0.1228,0.1311,0.1344,0.1387,0.15,0.1542,0.1645,0.1722,0.1758,0.1862,0.1908,0.1958,0.2001,0.1941,0.1925,0.189,0.2008,0.1991,0.1752,0.1746,0.1753,0.1748,0.1745,0.1741,0.1739,0,0.1113,0.1131,0.1225,0.1256,0.1302,0.1378,0.1424,0.1532,0.1577,0.1717,0.1736,0.1832,0.1881,0.1836,0.1893,0.188,0.1856,0.183,0.1785,0.1749,0.1728,0.1728,0.1727,0.1733,0.1732,0.1731,0.173,0,0.1068,0.1116,0.1152,0.1216,0.1272,0.132,0.1397,0.1419,0.1533,0.1642,0.1668,0.1688,0.1732,0.1749,0.1756,0.1743,0.1836,0.179,0.1798,0.1755,0.1725,0.1708,0.1712,0.1717,0.1719,0.172,0.1721,0,0.1043,0.1057,0.1114,0.1158,0.1222,0.1238,0.1289,0.1328,0.1384,0.1528,0.153,0.1622,0.1715,0.1678,0.1683,0.1662,0.1628,0.156,0.1579,0.1594,0.1526,0.1463,0.136,0,0,0,0,0,0.1008,0.101,0.1048,0.1082,0.1138,0.1172,0.1253,0.1302,0.1411,0.1387,0.1454,0.1481,0.1489,0.1535,0.1479,0.1609,0.1637,0.1534,0.1569,0.1645,0.166,0.1594,0,0,0,0,0,0,0.0982,0.1015,0.1018,0.1006,0.1013,0.1058,0.1104,0.1177,0.1167,0.1284,0.1296,0.1381,0.1413,0.1506,0.1449,0.1461,0.1447,0.1592,0.1587,0.1637,0.165,0.1662,0.1599,0,0,0,0,0]},{"header":{"parameterUnit":"m.s-1","parameterCategory":2,"la1":30.2991,"la2":30.254,"lo1":-89.0895,"lo2":-89.0444,"dy":0.0017,"dx":0.0017,"nx":28,"ny":28,"refTime":"2024-08-27T09:00:00:Z","depth":"4","parameterNumber":3,"parameterNumberName":"V-component_of_CURRENTS"},"data":[0,0,0,0,0,0,0,0,0,0,0,0,0,0,0,0,0,0,0,0,0,0,0,0,0,0,0,0,0,0,0,0,0,0,0,0,0,0,0,0,0,0,0,0,0,0,0,0,0,0,0,0,0,0,0,0,0,0,0.0203,0.0203,0,0.0203,0.0203,0.0204,0.0204,0.0204,0.0204,0.0204,0.0195,0.0195,0.0194,0,0,0,0,0,0,0,0,0,0,0,0,0,0.018,0.0181,0.0203,0.0203,0.0203,0.0203,0.0203,0.0204,0.0204,0.0204,0.0204,0.0204,0.0195,0.0195,0.0194,0,0,0,0,0,0,0,0,0,0,0,0,0,0.0187,0.0181,0.0203,0.0203,0.0203,0.0203,0.0203,0.0204,0.0204,0.0204,0.0204,0.0204,0.0195,0.0195,0.0194,0.0193,0,0,0.0193,0.0193,0,0,0,0,0,0,0,0,0.0186,0.0188,0.0203,0.0203,0.0203,0.0203,0.0192,0.0199,0.0204,0.0204,0.0204,0.0204,0.0197,0.0196,0.0197,0.0193,0.0192,0.0193,0.0193,0.0193,0.0193,0,0,0,0,0,0,0,0.0186,0.0188,0.0204,0.0203,0.0203,0.0195,0.0196,0.0193,0.0201,0.0204,0.0204,0.0204,0.0197,0.0197,0.0197,0.0192,0.0193,0.0193,0.0193,0.0193,0.0192,0.0192,0,0,0,0,0,0,0.0187,0.0187,0.0204,0.0204,0.0194,0.0196,0.0197,0.0204,0.0201,0.0201,0.0204,0.0204,0.0198,0.0197,0.0196,0.0207,0.0193,0.0193,0.0193,0.0192,0.0192,0.0192,0,0,0,0,0,0,0.0186,0.0188,0.0204,0.0195,0.0196,0.0196,0.0204,0.0204,0.0208,0.0201,0.02,0.0208,0.0198,0.0197,0.0199,0.0206,0.0193,0.0192,0.0191,0.0192,0.0192,0.022,0,0,0,0,0,0,0.0186,0.0189,0.0194,0.0195,0.0197,0.021,0.0204,0.0204,0.0207,0.0207,0.0204,0.0203,0.0198,0.0199,0.0198,0.0205,0.0192,0.0191,0.0192,0.0192,0.0219,0.0221,0.0223,0,0,0,0,0,0.0185,0.0194,0.0194,0.0196,0.0204,0.021,0.021,0.021,0.0208,0.0213,0.021,0.0203,0.0201,0.0199,0.0198,0.0205,0.0191,0.0192,0.0192,0.0218,0.0221,0.0223,0,0,0,0,0,0,0.0185,0.0195,0.0195,0.0206,0.021,0.021,0.0214,0.0213,0.0215,0.0216,0.0207,0.0206,0.021,0.0203,0.0202,0.0205,0.0194,0.0194,0.0214,0.0217,0.0219,0.0228,0.0192,0,0,0,0,0,0.0188,0.0199,0.0203,0.0212,0.0215,0.0215,0.0217,0.0219,0.0219,0.022,0.0216,0.0212,0.021,0.021,0.0206,0.021,0.0194,0.0212,0.0215,0.0217,0.0222,0.02,0.0201,0.0193,0.0193,0.0193,0,0,0.019,0.0196,0.0202,0.0213,0.0215,0.0226,0.0217,0.0224,0.0236,0.0219,0.023,0.0219,0.0212,0.0216,0.0217,0.0212,0.0209,0.0217,0.0219,0.0224,0.02,0.0201,0.0202,0.0194,0.0194,0.0194,0,0,0.02,0.0206,0.0219,0.0225,0.0233,0.0236,0.0239,0.0243,0.0247,0.0254,0.0244,0.0239,0.0237,0.0232,0.023,0.0241,0.0221,0.0239,0.0259,0.0238,0.0238,0.0238,0.0216,0.0214,0.0241,0.0241,0.0241,0,0.0201,0.0222,0.0222,0.0237,0.0247,0.0242,0.0259,0.0263,0.0266,0.027,0.0262,0.0254,0.0246,0.025,0.0255,0.0247,0.023,0.0251,0.024,0.024,0.024,0.0217,0.0214,0.0243,0.0243,0.0242,0.0242,0,0.0222,0.024,0.0248,0.0268,0.0276,0.0291,0.0297,0.0304,0.0305,0.0303,0.0305,0.0289,0.0284,0.0279,0.0272,0.0269,0.0255,0.0244,0.0235,0.0242,0.0218,0.0214,0.0245,0.0244,0.0244,0.0243,0,0,0.0226,0.0258,0.0262,0.028,0.0297,0.0308,0.0327,0.0342,0.0354,0.0345,0.0355,0.0343,0.0327,0.0324,0.0308,0.029,0.0271,0.0271,0.0269,0.025,0.0221,0.021,0.0205,0.0257,0.0256,0.0256,0.0203,0,0.0246,0.0282,0.0293,0.0328,0.0348,0.0355,0.0375,0.0385,0.0385,0.0391,0.0371,0.0371,0.0347,0.0345,0.0323,0.0288,0.0265,0.0287,0.0215,0.0213,0.0204,0.0202,0.0255,0.0201,0.02,0.0199,0.0199,0,0.0267,0.029,0.0331,0.0369,0.0379,0.0398,0.0428,0.0446,0.0448,0.0448,0.0436,0.0415,0.0396,0.037,0.0309,0.0324,0.0277,0.0242,0.0239,0.0218,0.0196,0.0191,0.0193,0.0193,0.0194,0.0194,0.0195,0,0.0277,0.0319,0.0356,0.0369,0.0406,0.0428,0.0449,0.0462,0.0486,0.0483,0.0491,0.0453,0.0445,0.0381,0.0311,0.0309,0.0236,0.0221,0.0164,0.0162,0.0175,0.0176,0.017,0.017,0.017,0.017,0.0171,0,0.0297,0.0326,0.0366,0.0385,0.0433,0.0449,0.0494,0.0507,0.0528,0.0557,0.0522,0.0529,0.0448,0.0397,0.0322,0.0236,0.0241,0.0168,0.0149,0.0188,0.019,0.0173,0.0174,0.0169,0.0169,0.0169,0.017,0,0.0304,0.033,0.0375,0.0421,0.0441,0.0475,0.0534,0.0563,0.0579,0.0615,0.0618,0.0588,0.0526,0.0433,0.033,0.0259,0.0171,0.0136,0.0188,0.0172,0.0107,0.0111,0.0068,0.0067,0.0066,0.0065,0.0065,0,0.0311,0.0336,0.04,0.0432,0.0457,0.051,0.0552,0.0588,0.062,0.0652,0.0669,0.0626,0.0591,0.044,0.0336,0.0185,0.016,0.0105,0.0103,0.0112,0.0097,0.0101,0.0105,0.0064,0.0064,0.0064,0.0063,0,0.0322,0.0348,0.0384,0.0451,0.0502,0.0562,0.062,0.0647,0.0692,0.0706,0.071,0.0638,0.0568,0.0446,0.0328,0.0219,0.0136,0.0097,0.0098,0.0095,0.0107,0.0094,0.0099,0.0061,0.0061,0.0062,0.0062,0,0.0331,0.0357,0.0408,0.0469,0.0534,0.0598,0.0629,0.0671,0.0707,0.0737,0.0736,0.0664,0.0624,0.0464,0.0357,0.0247,0.0215,0.0165,0.0161,0.0162,0.0202,0.0232,0.0209,0,0,0,0,0,0.0339,0.037,0.0423,0.0491,0.0555,0.0599,0.067,0.0695,0.0736,0.0742,0.0741,0.0676,0.0531,0.0472,0.0361,0.0332,0.0187,0.0195,0.0125,0.0048,0.0051,0.008,0,0,0,0,0,0,0.0344,0.0391,0.042,0.05,0.0548,0.0625,0.0675,0.0704,0.0705,0.0727,0.0654,0.063,0.049,0.0594,0.0353,0.0322,0.0257,0.0133,0.013,0.0046,0.0049,0.0051,0.0082,0,0,0,0,0]}]]